Starlink 31779

operational
NORAD ID: 59744 Int'l Des: 2024-090 Owner: SPXS Country: US Constellation: starlink
LEOCIRCULAR

Starlink 31779について

説明を読み込み中...

リアルタイム位置

3D地球を読み込み中...

次回通過

高度履歴

Altitude vs Time

uPlot chart will show altitude changes over time

軌道要素

1 59744U 24090Q 25308.67808183 .00003416 00000-0 13358-3 0 9990
2 59744 43.0019 169.2891 0001073 256.6372 103.4360 15.27582391 84323
Epoch: Nov 4, 2025 • Age: 8 hours

現在のステータス

高度 484.0 km
速度 7.63 km/s
衛星直下点 29.73°N, 105.25°W
打ち上げ日 May 13, 2024
運用期間 1.4 years
タイプ internet

技術仕様

分類 Payload
質量 730.00 kg
乾燥質量 700.00 kg
総質量 730.00 kg
長さ 0.30 m
直径 4.10 m
スパン 29.00 m
形状 Box + pan
製造者 SPXS
バスタイプ Starlink V2M
フェーズステータス In Orbit
所有者/国 SPXS/US

大規模コンステレーション

Loading constellations...